Location: Chuathbaluk
(61.5726°N, 159.2454°W)
Time: 23:45:20
(UTC+00:00)

Transit 4A - Pass Details

Date: 02 December 2020
Orbit: 864 x 980 km, 66.8° (Epoch: 20 January)

Event Time Altitude Azimuth Distance (km) Brightness Sun altitude
Rises 18:40:51 0° 213° (SSW) 3,654 11.1 -5.0°
Reaches altitude 10° 18:43:25 10° 211° (SSW) 2,719 10.5 -4.8°
Maximum altitude 18:49:41 61° 133° (SE) 1,105 8.8 -4.2°
Drops below altitude 10° 18:56:00 10° 54° (NE) 2,741 10.5 -3.6°
Sets 18:58:36 0° 52° (NE) 3,686 11.1 -3.4°
